This demonstration page uses our WeatherBlox Daily Observations layout. Learn more.

Hourly Observations for January 8, 2020

Temp ( °F °C ) Dew Point ( °F °C ) Humidity (%) Winds ( mph kmh ) Pressure ( in mb ) Visibility ( mi km ) Precip ( " mm )
12:15 am 00:15 Partly Cloudy 23 -5 23 -5 100 100 Calm 30.04 1017 7 11.26538 0 0
12:35 am 00:35 Clear 23 -5 23 -5 100 100 Calm 30.04 1017 7 11.26538 0 0
12:55 am 00:55 Clear 23 -5 23 -5 100 100 SW 3 6 30.04 1017 4 6.43736 0 0
1:15 am 01:15 Clear 23 -5 23 -5 100 100 SW 5 7 30.04 1017 10 16.0934 0 0
1:35 am 01:35 Clear 23 -5 23 -5 100 100 WSW 3 6 30.05 1018 10 16.0934 0 0
1:55 am 01:55 Clear 23 -5 23 -5 100 100 W 3 6 30.05 1018 10 16.0934 0 0
2:15 am 02:15 Clear 25 -4 25 -4 100 100 W 5 7 30.05 1018 10 16.0934 0 0
2:35 am 02:35 Partly Cloudy 25 -4 25 -4 100 100 WSW 5 7 30.05 1018 10 16.0934 0 0
2:55 am 02:55 Clear 27 -3 27 -3 100 100 WSW 5 7 30.05 1017 10 16.0934 0 0
3:15 am 03:15 Clear 25 -4 25 -4 100 100 WSW 5 7 30.05 1018 10 16.0934 0 0
3:35 am 03:35 Mostly Cloudy 27 -3 27 -3 100 100 W 7 11 30.06 1018 10 16.0934 0 0
3:55 am 03:55 Partly Cloudy 28 -2 28 -2 100 100 W 6 9 30.06 1018 10 16.0934 0 0
4:15 am 04:15 Clear 25 -4 25 -4 100 100 W 6 9 30.06 1018 10 16.0934 0 0
4:35 am 04:35 Clear 28 -2 28 -2 100 100 WSW 7 11 30.06 1018 10 16.0934 0 0
4:55 am 04:55 Clear 28 -2 27 -3 93 93 SW 8 13 30.06 1018 10 16.0934 0 0
5:15 am 05:15 Clear 28 -2 28 -2 100 100 WSW 8 13 30.06 1018 10 16.0934 0 0
5:35 am 05:35 Partly Cloudy 28 -2 28 -2 100 100 WSW 7 11 30.07 1018 10 16.0934 0 0
5:55 am 05:55 Partly Cloudy 28 -2 28 -2 100 100 SW 8 13 30.06 1018 10 16.0934 0 0
6:15 am 06:15 Partly Cloudy 28 -2 28 -2 100 100 WSW 9 15 30.05 1017 10 16.0934 0 0
6:35 am 06:35 Mostly Cloudy 30 -1 28 -2 93 93 SW 8 13 30.04 1017 10 16.0934 0 0
6:55 am 06:55 Partly Cloudy 30 -1 28 -2 93 93 SW 10 17 30.04 1017 10 16.0934 0 0
7:15 am 07:15 Partly Cloudy 32 0 30 -1 93 93 WSW 8 13 30.04 1017 10 16.0934 0 0
7:35 am 07:35 Mostly Cloudy 32 0 30 -1 93 93 WSW 10 17 30.04 1017 10 16.0934 0 0
7:55 am 07:55 Cloudy 32 0 30 -1 93 93 W 7 11 30.04 1017 10 16.0934 0 0
8:15 am 08:15 Cloudy 32 0 32 0 100 100 WNW 6 9 30.06 1018 10 16.0934 0 0
8:35 am 08:35 Cloudy 32 0 32 0 100 100 NW 6 9 30.08 1019 10 16.0934 0 0
8:55 am 08:55 Cloudy 32 0 32 0 100 100 WNW 5 7 30.09 1019 10 16.0934 0 0
9:15 am 09:15 Cloudy 34 1 32 0 93 93 WNW 7 11 30.09 1019 10 16.0934 0 0
9:35 am 09:35 Partly Cloudy 34 1 32 0 93 93 WNW 13 20 30.1 1019 10 16.0934 0 0
9:55 am 09:55 Partly Cloudy 34 1 32 0 93 93 W 9 15 30.11 1020 10 16.0934 0 0
10:15 am 10:15 Partly Cloudy 36 2 32 0 87 87 W 8 13 30.11 1020 10 16.0934 0 0
10:35 am 10:35 Partly Cloudy 36 2 30 -1 81 81 WNW 13 20 30.12 1020 10 16.0934 0 0
10:55 am 10:55 Mostly Cloudy 36 2 30 -1 81 81 W 13 20 30.12 1020 10 16.0934 0 0
11:15 am 11:15 Cloudy 36 2 30 -1 81 81 W 5 7 30.12 1020 10 16.0934 0 0
11:35 am 11:35 Mostly Cloudy 36 2 30 -1 81 81 WNW 14 22 30.12 1020 10 16.0934 0 0
11:55 am 11:55 Partly Cloudy 37 3 28 -2 70 70 W 23 37 30.11 1020 10 16.0934 0 0
12:15 pm 12:15 Partly Cloudy 37 3 23 -5 56 56 WNW 26 43 30.11 1020 10 16.0934 0 0
12:35 pm 12:35 Partly Cloudy 39 4 23 -5 52 52 WNW 23 37 30.11 1019 10 16.0934 0 0
12:55 pm 12:55 Sunny 39 4 21 -6 48 48 WNW 24 39 30.12 1020 10 16.0934 0 0
1:15 pm 13:15 Sunny 41 5 19 -7 42 42 NW 28 44 30.11 1020 10 16.0934 0 0
1:35 pm 13:35 Sunny 41 5 21 -6 45 45 WNW 23 37 30.13 1020 10 16.0934 0 0
1:55 pm 13:55 Sunny 41 5 19 -7 42 42 NW 22 35 30.14 1021 10 16.0934 0 0
2:15 pm 14:15 Sunny 41 5 19 -7 42 42 NW 24 39 30.15 1021 10 16.0934 0 0
2:35 pm 14:35 Sunny 41 5 19 -7 42 42 WNW 22 35 30.17 1022 10 16.0934 0 0
2:55 pm 14:55 Sunny 41 5 18 -8 39 39 WNW 20 31 30.19 1022 10 16.0934 0 0
3:15 pm 15:15 Sunny 41 5 19 -7 42 42 WNW 18 30 30.21 1023 10 16.0934 0 0
3:35 pm 15:35 Sunny 39 4 19 -7 45 45 NNW 26 43 30.23 1024 10 16.0934 0 0
3:55 pm 15:55 Sunny 37 3 18 -8 45 45 NW 18 30 30.25 1024 10 16.0934 0 0
4:15 pm 16:15 Sunny 37 3 18 -8 45 45 NW 20 31 30.26 1025 10 16.0934 0 0
4:35 pm 16:35 Sunny 37 3 18 -8 45 45 NW 14 22 30.27 1025 10 16.0934 0 0
4:55 pm 16:55 Sunny 37 3 18 -8 45 45 NW 13 20 30.29 1026 10 16.0934 0 0
5:15 pm 17:15 Clear 36 2 18 -8 48 48 NNW 14 22 30.3 1026 10 16.0934 0 0
5:35 pm 17:35 Clear 36 2 18 -8 48 48 NNW 13 20 30.31 1026 10 16.0934 0 0
5:55 pm 17:55 Clear 36 2 19 -7 52 52 NNW 10 17 30.33 1027 10 16.0934 0 0
6:15 pm 18:15 Clear 34 1 19 -7 56 56 NNW 12 19 30.34 1027 10 16.0934 0 0
6:35 pm 18:35 Clear 34 1 19 -7 56 56 NNW 10 17 30.35 1028 10 16.0934 0 0
6:55 pm 18:55 Clear 34 1 19 -7 56 56 N 5 7 30.38 1029 10 16.0934 0 0
7:15 pm 19:15 Clear 34 1 19 -7 56 56 NNE 3 6 30.4 1029 10 16.0934 0 0
7:35 pm 19:35 Clear 34 1 19 -7 56 56 Calm 30.41 1030 10 16.0934 0 0
7:55 pm 19:55 Clear 32 0 19 -7 60 60 N 10 17 30.42 1030 10 16.0934 0 0
8:15 pm 20:15 Clear 32 0 21 -6 64 64 NNW 12 19 30.42 1030 10 16.0934 0 0
8:35 pm 20:35 Clear 32 0 21 -6 64 64 NNW 6 9 30.43 1031 10 16.0934 0 0
8:55 pm 20:55 Clear 30 -1 21 -6 69 69 Calm 30.45 1031 10 16.0934 0 0
9:35 pm 21:35 Clear 30 -1 21 -6 69 69 Calm 30.47 1032 10 16.0934 0 0
9:55 pm 21:55 Clear 30 -1 21 -6 69 69 N 5 7 30.48 1032 10 16.0934 0 0
10:15 pm 22:15 Clear 30 -1 21 -6 69 69 N 5 7 30.49 1033 10 16.0934 0 0
10:35 pm 22:35 Clear 28 -2 21 -6 74 74 Calm 30.51 1033 10 16.0934 0 0
10:55 pm 22:55 Clear 28 -2 21 -6 74 74 Calm 30.52 1033 10 16.0934 0 0
11:15 pm 23:15 Clear 30 -1 21 -6 69 69 Calm 30.53 1034 10 16.0934 0 0
11:35 pm 23:35 Clear 30 -1 19 -7 64 64 NNW 7 11 30.53 1034 10 16.0934 0 0
11:55 pm 23:55 Clear 28 -2 19 -7 69 69 NNW 8 13 30.55 1034 10 16.0934 0 0

Powered by AerisWeather